PALAPA B1 R/B(PAM-D), 14136

Orbit data source: Space-Track

PALAPA B1 R/B(PAM-D), 14136 is space debris in HEO originally from a launch on Sat, 18 Jun 1983 UTC launched from the Air Force Eastern Test Range (AFETR). Debris objects in space refer to the collection of defunct objects orbiting the Earth. Examples of debris include non-operational satellites, rocket bodies, and fragments generated from explosions, collisions, or faulty payload assembly.

Loading next visibility...
Identifier
14136, 1983-059E
Orbit
HEO
Country
Flag of USUS
Related business
Manufacturer
Thiokol/TE
Mission
Spacecraft
Bus & Motor
STAR 48, Unknown motor
Mass
2,154 kg wet, 191 kg dry
Launch date (UTC)
1983-06-18 (43 years ago)
Launch vehicle
Unknown
Launch site
Air Force Eastern Test Range (AFETR)
Object type
Payload
Rocket body
Debris
Shape & HBR
Unknown
Radar Cross Section
Large (>1 m²)

Expand to show TLE details & history
Last TLE update: 1 day ago

TLE from 1 day ago
0 PALAPA B1 R/B(PAM-D)
1 14136U 83059E   26099.51412008  .00000299  00000-0  63813-3 0  9991
2 14136  25.6634  78.8363 6908798 238.7119  36.4546  2.71105222345154
Epoch: 2026-04-09T12:20Z
TLE epoch observation values (Epoch: 2026-04-09T12:20:19.974Z)
Latitude
-0.0001°
Longitude
55.93812°
Altitude
11,331.083 km
Speed
5.164 km/s
True Right ascension
05h 15m 07s
True Declination
0° 00' 00"
Sunlit
Object was in daylight at epoch
Visualization orbit readout
Latitude
Unknown
Longitude
Unknown
Altitude
Unknown
Speed
Unknown
Apparent Right ascension
Unknown
Apparent Declination
Unknown
Sunlit
N/A
Visualization observer readout
Local Sidereal Time
01:20:20
Azimuth
Unknown
Elevation
Unknown
Doppler factor
Unknown
Orbital elements
Apogee altitude
30,364.19 km
Perigee altitude
338.955 km
Semi-major axis
21,729.709 km
Eccentricity
0.69088
Inclination
25.6634°
RAAN
78.8363°
Arg. of periapsis
238.7119°
True anomaly
121.4113°
Mean anomaly
36.4546°
Eccentric anomaly
74.62183°
Mean motion
0.67758 °/min
Orbital period
531.3 mins
BSTAR
0.00063813
Loading maneuver chart data...
Computing Atmospheric mass density...
Loading historical data...
Loading historical data...
Loading historical data...
Loading historical data...
Loading historical data...
Loading historical data...
Loading historical data...

Documentation

Showing up to 5 results
|